Volk, WI

8:12 PM CDT on April 24, 2018 (GMT -0500)
Volk

Weather History for KVOK - September, 2013

Change the Weather History Date:

Tuesday, September 10, 2013

  Actual Average Record
Temperature  
Mean Temperature 80 °F -  
Max Temperature 91 °F 72 °F 91 °F (2013)
Min Temperature 68 °F 53 °F 35 °F (2008)
Cooling Degree Days 15    
Growing Degree Days 30 (Base 50)    
Moisture  
Dew Point 65 °F    
Average Humidity 57    
Maximum Humidity 73    
Minimum Humidity 45    
Precipitation  
Precipitation 0.00 in - - ()
Sea Level Pressure  
Sea Level Pressure 29.88 in    
Wind  
Wind Speed 10 mph (WSW)    
Max Wind Speed 14 mph    
Max Gust Speed 22 mph    
Visibility 10 miles    
Events      
Averages and records for this station are not official NWS values.
T = Trace of Precipitation, MM = Missing Value Source: NWS Daily Summary

Daily Weather History Graph

Daily Weather History Graph

Search for Another Location

Airport or City:

Astronomy

Sep. 10, 2013 Rise Set
Actual Time 6:34 AM CDT 7:20 PM CDT
Civil Twilight 6:05 AM CDT 7:49 PM CDT
Nautical Twilight 5:31 AM CDT 8:23 PM CDT
Astronomical Twilight 4:55 AM CDT 8:59 PM CDT
Moon 12:12 PM CDT (9/10) 10:10 PM CDT (9/10)
Length of Visible Light 13h 43m
Length of Day
12h 45m
Waxing Crescent, 28% of the Moon is Illuminated
Sep 10
Waxing Crescent
Sep 12
First Quarter
Sep 19
Full
Sep 26
Last Quarter
Oct 4
New

Hourly Weather History & Observations

Time (CDT) Temp. Heat Index Dew Point Humidity Pressure Visibility Wind Dir Wind Speed Gust Speed Precip Events Conditions
12:58 AM 82.6 °F 83.9 °F 63.9 °F 53% 29.78 in 10.0 mi WSW 13.8 mph 21.9 mph N/A   Clear
1:58 AM 81.7 °F 83.0 °F 63.5 °F 54% 29.79 in 10.0 mi WSW 11.5 mph - N/A   Clear
2:58 AM 79.2 °F - 63.5 °F 59% 29.81 in 10.0 mi WSW 10.4 mph - N/A   Clear
3:58 AM 78.4 °F - 63.3 °F 60% 29.82 in 10.0 mi WSW 8.1 mph - N/A   Clear
4:58 AM 77.2 °F - 63.3 °F 62% 29.83 in 10.0 mi WSW 9.2 mph - N/A   Clear
5:58 AM 73.4 °F - 63.3 °F 71% 29.84 in 10.0 mi WSW 6.9 mph - N/A   Clear
6:58 AM 75.2 °F - 62.6 °F 65% 29.87 in 10.0 mi SW 8.1 mph - N/A   Partly Cloudy
7:58 AM 77.0 °F - 64.4 °F 65% 29.88 in 10.0 mi SW 9.2 mph - N/A   Partly Cloudy
8:58 AM 78.8 °F - 66.2 °F 65% 29.89 in 10.0 mi West 10.4 mph - N/A   Partly Cloudy
9:58 AM 82.4 °F 84.6 °F 66.2 °F 58% 29.91 in 10.0 mi WSW 11.5 mph - N/A   Partly Cloudy
10:58 AM 84.9 °F 87.1 °F 66.2 °F 53% 29.90 in 10.0 mi West 8.1 mph - N/A   Clear
11:58 AM 86.0 °F 88.2 °F 66.2 °F 51% 29.89 in 10.0 mi SSW 9.2 mph - N/A   Partly Cloudy
12:58 PM 89.6 °F 93.4 °F 68.0 °F 49% 29.89 in 10.0 mi WSW 12.7 mph 17.3 mph N/A   Partly Cloudy
1:58 PM 89.6 °F 93.4 °F 68.0 °F 49% 29.89 in 10.0 mi West 12.7 mph 19.6 mph N/A   Scattered Clouds
2:58 PM 90.9 °F 94.0 °F 66.6 °F 45% 29.88 in 10.0 mi West 12.7 mph 19.6 mph N/A   Scattered Clouds
3:58 PM 89.6 °F 92.2 °F 66.2 °F 46% 29.89 in 10.0 mi WSW 11.5 mph - N/A   Scattered Clouds
3:59 PM 89.6 °F 92.2 °F 66.2 °F 46% 29.90 in 10.0 mi SW 13.8 mph 19.6 mph N/A   Partly Cloudy
4:58 PM 89.2 °F 91.6 °F 66.2 °F 46% 29.89 in 10.0 mi WSW 12.7 mph - N/A   Clear
5:58 PM 86.7 °F 88.4 °F 64.9 °F 48% 29.89 in 10.0 mi West 9.2 mph - N/A   Clear
6:58 PM 82.0 °F 85.1 °F 68.4 °F 63% 29.90 in 10.0 mi NW 8.1 mph - N/A   Scattered Clouds
7:58 PM 78.8 °F - 64.2 °F 61% 29.92 in 10.0 mi NNW 6.9 mph - N/A   Partly Cloudy
8:58 PM 77.0 °F - 61.5 °F 59% 29.95 in 10.0 mi NW 8.1 mph 18.4 mph N/A   Scattered Clouds
9:58 PM 73.6 °F - 61.7 °F 66% 29.96 in 10.0 mi West 4.6 mph - N/A   Partly Cloudy
10:58 PM 70.9 °F - 61.7 °F 73% 29.96 in 10.0 mi West 4.6 mph - N/A   Scattered Clouds
11:58 PM 68.9 °F - 58.8 °F 70% 29.96 in 10.0 mi WNW 3.5 mph - N/A   Clear